{"data":{"norad_id":65401,"intl_designator":"2025-191Y","name":"STARLINK-34909","alt_names":[],"object_type":"PAYLOAD","status":"ACTIVE","operator":null,"country":"US","launch_date":"2025-08-30","launch_site_code":"AFWTR","launch_vehicle":null,"mission":null,"orbit_class":"UNKNOWN","rcs_meters":null,"size_class":null,"mass_kg":null,"dimensions":null,"purposes":["comms"],"wikipedia_slug":null,"has_3d_model":false,"image_url":null,"decayed_at":null,"tle_current":{"epoch":"2026-05-25T03:12:03.868704Z","epoch_age_seconds":57422,"freshness":"FRESH","line1":"1 65401U 25191Y   26145.13337811  .00006532  00000+0  45623-3 0  9997","line2":"2 65401  97.4481  16.5237 0001707  93.7077 266.4346 15.05662989 41785","mean_motion":15.05662989,"eccentricity":0.0001707,"inclination_deg":97.4481,"raan_deg":16.5237,"arg_perigee_deg":93.7077,"mean_anomaly_deg":266.4346,"bstar":0.00045623,"rev_number":4178,"period_min":95.63893185396,"perigee_km":548.28876911695,"apogee_km":550.65385459462,"semimajor_km":6927.6083118558,"source":"CELESTRAK","updated_at":"2026-05-25T13:38:20.798178Z"}}}